Terminal Aerodrome Forecast
Issued by NWS Houston/Galveston, TX

Home | Current Version | Previous Version | Text Only | Print | Product List | Glossary On
Versions: 1 2 3 4 5 6 7 8 9 10 11 12 13 14 15 16 17 18 19 20 21 22 23 24 25 26 27 28 29 30 31 32 33
000
FTUS44 KHGX 292327
TAFCLL
TAF
KCLL 292327Z 3000/3024 17009G16KT P6SM SKC
     FM300200 18009KT P6SM SKC WS018/20032KT
     FM300600 17009KT P6SM BKN015 WS015/21030KT
     FM301000 18006KT P6SM OVC012
     FM301500 20008KT P6SM BKN025
     FM301800 18009KT P6SM SCT040=

USA.gov is the U.S. government's official web portal to all federal, state and local government web resources and services.